Location: Unspecified
(38.9820°N, 94.4650°W)
Time: 00:48:10
(UTC-06:00)

CZ-3 Stage 3 - Visible Passes

Search period start: 03 December 2016 00:00
Search period end: 13 December 2016 00:00
Orbit: 475 x 34728 km, 30.6° (Epoch: 01 December)

Date Brightness Start Highest point End Pass type
(mag) Time Alt. Az. Time Alt. Az. Time Alt. Az.
03 Dec 8.3 00:33:52 10° SE 07:35:40 67° ESE 09:27:52 10° E visible
04 Dec 10.3 01:20:26 10° ENE 03:54:14 22° ENE 05:16:09 10° ENE visible
05 Dec 7.4 03:40:12 10° SSW 07:22:29 63° SW 13:00:54 10° SE visible
06 Dec 8.3 00:22:49 10° SE 07:25:27 67° ESE 09:19:17 10° E visible
07 Dec 10.3 01:07:28 10° ENE 03:44:14 22° ENE 05:07:25 10° ENE visible
08 Dec 7.5 03:31:11 10° SSW 07:10:15 64° SW 12:52:16 10° SE visible
09 Dec 8.2 00:11:57 10° SE 07:15:15 67° ESE 09:10:41 10° E visible
10 Dec 10.3 00:54:35 10° ENE 03:34:14 22° ENE 04:58:39 10° ENE visible
11 Dec 7.6 03:22:11 10° SSW 06:58:05 64° SW 12:43:38 10° SE visible
12 Dec 8.1 00:01:18 10° SE 07:05:05 67° ESE 09:02:05 10° E visible
